Forside
METAR-TAF:

METAR-TAF

Lufthavne :

Minocqua / Woodruff, Wisconsin, USA

Breddekreds: 45-56N, længdekreds: 089-44W, højde: 496 m

Aktuelle vejr

Denne rapport blev lavet for 19 minutter siden, kl. 11:35 UTC
Vind stille
Temperatur 17°C
Fugtighed 88%
Tryk 1020 hPa
Sigt: 16.1 km
Brudte skyer i en højde af 11000 ft

METAR: KARV 121135Z AUTO 00000KT 10SM BKN110 17/15 A3012 RMK AO2 T01660154

Tid: 06:54 (11:54 UTC)


TAF: fraværende

Vejrobservationer og prognoser fra mere end 4000 lufthavne (METAR og TAF).

De gule og røde prikker repræsenterer de meteorologiske stationer.

Flyt musen over at se navnet på stationen.

Så klik over at se vejr observationer og prognoser.

At skifte det kort: Klik på de grønne knapper med et sort kors for at zoome ind; på den grønne knap med en bindestreg for at zoome ud; eller på de grønne pile for tilstødende kort.


METAR-TAF: